sat.trackr.live / text

‹ back to catalog

DUBAISAT-1

NORAD 35682 · 2009-041B

PAYLOAD ACTIVE UNKNOWN

§ Identity

Operator
Country
UAE
Launch date
2009-07-29
Launch site
TYMSC
Launch vehicle
Mass (kg)
RCS (m²)
1.22

Purposes: earth_obs

External: N2YO · Heavens-Above · Gunter

§ Orbital elements

Epoch: 2026-05-25T02:14:57.335424Z

Period
97.62 min
Inclination
98.0021°
Eccentricity
0.0011304
Mean motion
14.75078492 rev/d
Perigee alt
637.0 km
Apogee alt
652.8 km
Semi-major
7,023.0 km
B*
1.2100e-4
RAAN
278.6094°
Arg perigee
139.8327°
Mean anomaly
220.3719°
Rev number
90,169

§ Raw data

DUBAISAT-11 35682U 09041B   26145.09371916  .00000765  00000+0  12100-3 0  99962 35682  98.0021 278.6094 0011304 139.8327 220.3719 14.75078492901690

JSON: /api/v1/satellites/35682 · /tle

For live sub-satellite position, see the globe view (requires WebGL).

§ Visibility from observer

Set your observer location to see the next 7 days of passes ≥ 10°. The values pass through the URL so the page stays shareable.

No JS? Fill the form by hand. The geolocation button needs JavaScript.